Printer-friendly version

IAU Minor Planet Center

Minor Planet Center

MPEC 2007-R53 : 2007 RU10

The following Minor Planet Electronic Circular may be linked-to from your own Web pages, but must not otherwise be redistributed electronically.


Read MPEC 2007-R52 Read MPEC 2007-R54


M.P.E.C. 2007-R53                                Issued 2007 Sept. 11, 23:09 UT

     The Minor Planet Electronic Circulars contain information on unusual
         minor planets and routine data on comets.  They are published
   on behalf of Commission 20 of the International Astronomical Union by the
          Minor Planet Center, Smithsonian Astrophysical Observatory,
                          Cambridge, MA 02138, U.S.A.

             Prepared using the Tamkin Foundation Computer Network

                              MPC@CFA.HARVARD.EDU
          URL http://www.cfa.harvard.edu/iau/mpc.html  ISSN 1523-6714

                                   2007 RU10

Observations:
     K07R10U* C2007 09 11.24398 22 18 27.47 +03 01 44.9          19.1 V ER053703
     K07R10U  C2007 09 11.25115 22 18 26.36 +03 01 46.7          19.1 V ER053703
     K07R10U  C2007 09 11.25834 22 18 25.10 +03 01 48.4                 ER053703
     K07R10U  C2007 09 11.26553 22 18 23.94 +03 01 50.7          19.7 V ER053703
     K07R10U  C2007 09 11.30528 22 18 17.24 +03 02 01.7          19.7 V ER053703
     K07R10U  C2007 09 11.30772 22 18 16.84 +03 02 02.2          20.3 V ER053703
     K07R10U  C2007 09 11.31014 22 18 16.45 +03 02 03.8          19.5 V ER053703
     K07R10U  C2007 09 11.31258 22 18 15.91 +03 02 03.9          19.1 V ER053703
     K07R10U  C2007 09 11.38010 22 18 04.68 +03 02 21.9          19.7 V ER053703
     K07R10U  C2007 09 11.38166 22 18 04.53 +03 02 22.2          19.4 V ER053703
     K07R10U  C2007 09 11.38322 22 18 04.14 +03 02 23.1          20.0 V ER053703
     K07R10U  C2007 09 11.38478 22 18 03.96 +03 02 23.6          19.5 V ER053703
     K07R10U  C2007 09 11.82469 22 16 52.85 +03 04 19.2          19.8 V ER053151
     K07R10U  C2007 09 11.82621 22 16 52.60 +03 04 19.7          19.7 V ER053151
     K07R10U  C2007 09 11.82773 22 16 52.24 +03 04 19.2          19.8 V ER053151
     K07R10U  C2007 09 11.82922 22 16 52.11 +03 04 20.2          20.0 V ER053151
     K07R10U  C2007 09 11.83224 22 16 51.63 +03 04 20.5          19.9 V ER053151
     K07R10U  C2007 09 11.88983 22 16 41.88 +03 04 37.1          19.3 R ER053473
     K07R10U  C2007 09 11.89609 22 16 40.80 +03 04 39.3          19.6 R ER053473
     K07R10U  C2007 09 11.90316 22 16 39.60 +03 04 41.2          19.7 R ER053473

Observer details:
151 Eschenberg Observatory, Winterthur.  Observer M. Griesser.  0.40-m f/5.9
    Hypergraph + CCD.
473 Remanzacco.  Observers L. Donato, M. Gonano, V. Gonano, E. Guido,
    V. Santini, G. Sostero.  0.45-m f/4.4 Newtonian reflector + CCD.
703 Catalina Sky Survey.  Observer R. E. Hill.  Measurers E. C. Beshore,
    A. Boattini, G. J. Garradd, A. R. Gibbs, A. D. Grauer, R. E. Hill,
    R. A. Kowalski, S. M. Larson, R. H. McNaught.  0.68-m Schmidt + CCD.

Orbital elements:
2007 RU10                                                Earth MOID = 0.0849 AU
Epoch 2007 Aug. 28.0 TT = JDT 2454340.5                 MPC
M 327.64339              (2000.0)            P               Q
n   0.27792382     Peri.  132.08353     -0.11918738     -0.98267829
a   2.3255135      Node   324.01724     +0.82466974     -0.01838616
e   0.6923296      Incl.   13.97672     +0.55291427     -0.18440534
P   3.55           H   19.0           G   0.15
From 20 observations 2007 Sept. 11-11.

Ephemeris:
2007 RU10                a,e,i = 2.33, 0.69, 14                  q = 0.7155
Date    TT    R. A. (2000) Decl.     Delta      r     Elong.  Phase     V
2007 09 07    22 29.53   +02 41.9    0.665    1.664   168.1     7.2    19.7
2007 09 17    22 02.19   +03 26.7    0.591    1.563   155.7    15.4    19.7
2007 09 27    21 32.27   +04 04.8    0.542    1.460   139.9    26.3    19.7
2007 10 07    21 03.37   +04 40.1    0.512    1.354   123.9    37.8    19.7
2007 10 17    20 38.34   +05 20.0    0.493    1.246   108.7    49.3    19.8
2007 10 27    20 17.93   +06 12.9    0.476    1.138    94.9    60.5    19.8
2007 11 06    20 00.49   +07 22.2    0.453    1.031    82.0    72.2    19.9
2007 11 16    19 42.41   +08 44.2    0.422    0.930    69.5    85.3    20.0
2007 11 26    19 17.43   +09 54.3    0.380    0.839    56.4   101.4    20.2
2007 12 06    18 37.19   +09 37.2    0.339    0.767    41.8   121.1    21.0
2007 12 16    17 39.06   +05 39.9    0.317    0.724    29.0   138.8    22.5
2007 12 26    16 40.39   -02 25.6    0.335    0.718    31.2   134.7    22.1
2008 01 05    16 02.85   -11 22.2    0.391    0.751    43.7   115.2    20.8
2008 01 15    15 46.56   -18 54.3    0.461    0.816    55.4    96.8    20.4
2008 01 25    15 42.14   -24 56.8    0.526    0.902    65.4    82.6    20.3
2008 02 04    15 42.08   -29 54.3    0.580    1.002    74.6    71.5    20.3
2008 02 14    15 41.49   -34 06.0    0.619    1.107    83.8    62.4    20.4
2008 02 24    15 37.15   -37 41.3    0.648    1.215    93.5    54.4    20.5
2008 03 05    15 26.83   -40 40.5    0.669    1.323   103.9    46.7    20.5
2008 03 15    15 09.19   -42 52.5    0.688    1.429   115.1    39.1    20.5
2008 03 25    14 44.81   -43 59.5    0.713    1.534   126.6    31.5    20.5
2008 04 04    14 16.64   -43 46.9    0.751    1.636   137.8    24.3    20.6
2008 04 14    13 49.26   -42 16.0    0.805    1.734   146.9    18.4    20.7
2008 04 24    13 26.74   -39 50.3    0.882    1.830   151.6    15.2    20.9
2008 05 04    13 10.82   -37 02.2    0.981    1.923   150.3    15.0    21.2
2008 05 14    13 01.40   -34 19.0    1.102    2.013   144.6    16.9    21.6
2008 05 24    12 57.44   -31 57.2    1.242    2.100   137.0    19.2    22.1

Timothy B. Spahr             (C) Copyright 2007 MPC           M.P.E.C. 2007-R53

Read MPEC 2007-R52 Read MPEC 2007-R54


Our Web policy. Index to the CBAT/MPC/ICQ pages.


Valid HTML 4.01!